Location: Aldenham
(51.6667°N, 0.3500°W)
Time: 16:36:31
(UTC+00:00)

ARIANE 6 FM1 Upper Stage - Pass Details

Date: 18 November 2025
Orbit: 522 x 611 km, 62.0° (Epoch: 12 December)

Event Time Altitude Azimuth Distance (km) Brightness Sun altitude
Rises 17:52:46 0° 290° (WNW) 2,662 7.2 -16.0°
Reaches altitude 10° 17:55:29 10° 309° (NW) 1,768 5.8 -16.4°
Maximum altitude 17:58:21 19° 355° (N) 1,308 4.5 -16.9°
Enters shadow 17:59:36 16° 19° (NNE) 1,409 4.4 -17.1°
